Regional Weather Roundup
Issued by NWS

Home | Current Version | Previous Version | Graphics & Text | Print | Product List | Glossary On
Versions: 1 2 3 4 5 6 7 8 9 10 11 12 13 14 15 16 17 18 19 20 21 22 23 24 25 26 27 28 29 30 31 32 33 34 35 36 37 38 39 40 41 42 43 44 45 46 47 48 49 50
831
ASUS45 KCYS 191410
RWRWY

WYOMING REGIONAL WEATHER ROUNDUP
NATIONAL WEATHER SERVICE CHEYENNE WY
800 AM MDT THU APR 19 2018

NOTE:  "FAIR" INDICATES FEW OR NO CLOUDS BELOW 12,000 FEET
WITH NO SIGNIFICANT WEATHER AND/OR OBSTRUCTIONS TO VISIBILITY.

WYZ001-191500-
YELLOWSTONE NATIONAL PARK

CITY           SKY/WX    TMP DP  RH WIND       PRES   REMARKS
LK YELLOWSTONE   N/A     23  16  74 CALM      30.11S
W YELLOWSTONE  NOT AVBL

$$
WYZ002>013-054>058-071-098>099-191500-
NORTHERN WYOMING

CITY           SKY/WX    TMP DP  RH WIND       PRES   REMARKS
JACKSON        FAIR      32  22  66 N6        30.07R WCI  26
CODY           FAIR      38  27  64 CALM      30.14R
GREYBULL       FAIR      35  31  85 CALM      30.13R
WORLAND        FAIR      36  30  79 S3        30.11F
SHERIDAN       FAIR      46  25  43 SE15      30.15F
BUFFALO        FAIR      40  24  53 SE10      30.21S WCI  33
GILLETTE       FAIR      42  27  55 SE16      30.23F
HULETT         FAIR      41  28  60 CALM      30.29S
NEWCASTLE      FAIR      41  28  60 SE16G22   30.31S

$$
WYZ014>020-022>026-101>103-191500-
CENTRAL WYOMING

CITY           SKY/WX    TMP DP  RH WIND       PRES   REMARKS
BIG PINEY      CLOUDY    30  11  45 E3        30.08S
PINEDALE       CLOUDY    32  21  64 NW6       30.09R WCI  26
DUBOIS         FAIR      32  18  55 E7        30.12S WCI  26
LANDER         FAIR      34  22  61 W8        30.11R WCI  27
RIVERTON       FAIR      31  24  75 NE5       30.12R WCI  26
CASPER         FAIR      36  24  62 E7        30.15F WCI  30
DOUGLAS        FAIR      36  25  64 SE17      30.22F WCI  26

$$
WYZ021-027>030-104>119-191500-
SOUTHERN WYOMING

CITY           SKY/WX    TMP DP  RH WIND       PRES   REMARKS
EVANSTON       FAIR      35  11  36 E12       29.99R WCI  27
KEMMERER       FAIR      34  10  37 N22       30.01F WCI  22
FORT BRIDGER   FAIR      32   9  38 NE5       30.04S WCI  27
ROCK SPRINGS   FAIR      32  15  49 NE7       30.05S WCI  26
DIXON          FAIR      42  18  39 E7        30.10S
RAWLINS        FAIR      31  17  56 NE10      30.13R WCI  22
SARATOGA       FAIR      30  16  55 CALM      30.12S
LARAMIE        FAIR      32  15  49 SE24G33   30.17S WCI  19
CHEYENNE       FAIR      36  19  50 S14       30.26S WCI  27
TORRINGTON     FAIR      35  31  85 SE13      30.30S WCI  26
PINE BLUFFS    FAIR      36  25  64 MISG      30.30S

$$




USA.gov is the U.S. government's official web portal to all federal, state and local government web resources and services.